Home > Weather > Fukuoka > Past weeks

Flag for Japan Weather for the Past 2 Weeks in Fukuoka, Japan

Now
50 °F

Passing clouds.


Feels Like: 46 °F
Forecast: 41 / 53 °F
Wind: 12 mph from Northwest

Location: Fukuoka Airport

Current Time: Feb 9, 2016 at 10:49:30 AM

Latest Report: Feb 9, 2016 at 10:00 AM


Visibility: N/A

Pressure: 30.15 "Hg

Humidity: 35%

Dew point: 23 °F

Location of FukuokaLocation

Historic Weather in Fukuoka — Graph

°F

Fukuoka Temperature Yesterday

Maximum temperature yesterday: 48 °F (at 12:30 PM)
Minimum temperature yesterday: 32 °F (at 4:00 AM)
Average temperature yesterday: 42 °F

High & Low Weather Summary for the Past Weeks

 TemperatureHumidityPressure
High57 °F (Jan 28, 10:00 PM)94% (Jan 29, 4:30 AM)30.42 "Hg (Jan 29, 4:30 AM)
Low27 °F (Jan 25, 9:00 AM)28% (Feb 9, 8:00 AM)29.98 "Hg (Jan 29, 2:00 PM)
Average44 °F71%30.19 "Hg
* Reported Jan 25 9:00 AM — Feb 9 9:00 AM, Fukuoka, Weather by CustomWeather, © 2016

Note: Actual official high and low records may vary slightly from our data, if they occured in-between our weather recording intervals... More about our weather records

Advertising

Fukuoka Weather History for the Previous 24 Hours

 ConditionsComfort  
Time TempWeatherWind HumidityBarometerVisibility
9:00 AM
Tue, Feb 9
48 °FPassing clouds.15 mph43%30.12 "HgN/A
8:30 AM48 °FPassing clouds.18 mph32%30.12 "HgN/A
8:00 AM50 °FPassing clouds.14 mph28%30.09 "HgN/A
7:30 AM50 °FPassing clouds.15 mph40%30.07 "HgN/A
7:02 AM50 °FPassing clouds.17 mph47%30.07 "HgN/A
7:00 AM50 °FPassing clouds.17 mph47%30.07 "HgN/A
6:30 AM50 °FPassing clouds.18 mph43%30.04 "HgN/A
6:00 AM52 °FPassing clouds.12 mph44%30.04 "HgN/A
5:30 AM52 °FPassing clouds.10 mph47%30.01 "HgN/A
5:00 AM52 °FPassing clouds.7 mph44%30.01 "HgN/A
4:30 AM50 °FPartly cloudy.7 mph43%30.01 "HgN/A
4:00 AM50 °FPartly cloudy.5 mph47%30.01 "HgN/A
3:30 AM48 °FPartly cloudy.6 mph50%30.01 "HgN/A
3:00 AM48 °FPartly cloudy.7 mph50%30.01 "HgN/A
2:30 AM48 °FPassing clouds.7 mph50%30.01 "HgN/A
2:00 AM48 °FPassing clouds.7 mph50%30.01 "HgN/A
1:30 AM48 °FPassing clouds.7 mph50%30.01 "HgN/A
1:00 AM48 °FPassing clouds.6 mph50%30.04 "HgN/A
12:30 AM48 °FPassing clouds.8 mph50%30.04 "HgN/A
12:00 AM48 °FPassing clouds.6 mph50%30.04 "HgN/A
11:30 PM
Mon, Feb 8
48 °FPassing clouds.6 mph50%30.04 "HgN/A
11:00 PM48 °FPartly cloudy.7 mph54%30.04 "HgN/A
10:30 PM48 °FPartly cloudy.8 mph54%30.04 "HgN/A
10:00 PM48 °FPartly cloudy.7 mph58%30.04 "HgN/A
9:30 PM48 °FLight rain. Partly cloudy.8 mph58%30.04 "HgN/A
9:00 PM46 °FPassing clouds.10 mph62%30.07 "HgN/A
8:30 PM46 °FLight rain. Passing clouds.9 mph66%30.07 "HgN/A
8:00 PM46 °FLight rain. Partly cloudy.7 mph62%30.07 "HgN/A
7:30 PM46 °FPassing clouds.7 mph57%30.07 "HgN/A
7:00 PM46 °FLight rain. Partly cloudy.7 mph57%30.07 "HgN/A
6:30 PM46 °FLight rain. Partly cloudy.12 mph53%30.07 "HgN/A
6:00 PM48 °FLight rain. Passing clouds.6 mph43%30.07 "HgN/A
5:30 PM48 °FPartly sunny.7 mph46%30.07 "HgN/A
5:00 PM48 °FPartly sunny.5 mph46%30.07 "HgN/A
4:30 PM48 °FPartly sunny.8 mph46%30.07 "HgN/A
4:00 PM48 °FPartly sunny.8 mph43%30.07 "HgN/A
3:30 PM48 °FPartly sunny.8 mph46%30.07 "HgN/A
3:00 PM48 °FScattered clouds.10 mph43%30.07 "HgN/A
2:30 PM48 °FPartly sunny.10 mph46%30.07 "HgN/A
2:00 PM48 °FPartly sunny.13 mph43%30.09 "HgN/A
1:30 PM48 °FPartly sunny.14 mph40%30.09 "HgN/A
1:00 PM46 °FPassing clouds.12 mph40%30.09 "HgN/A
12:30 PM48 °FPassing clouds.10 mph40%30.09 "HgN/A
12:00 PM46 °FPassing clouds.9 mph40%30.12 "HgN/A
11:30 AM46 °FScattered clouds.10 mph43%30.12 "HgN/A
11:00 AM45 °FScattered clouds.12 mph42%30.12 "HgN/A
10:00 AM43 °FPartly sunny.6 mph61%30.12 "HgN/A
Weather by CustomWeather, © 2016

See weather overviewHow to use our weather pages